Location: Mouss�
(47.9236°N, 1.2701°W)
Time: 03:10:57
(UTC+00:00)

Cosmos 2322 - Pass Details

Date: 03 March 2021
Orbit: 842 x 853 km, 71.0° (Epoch: 16 April)

Event Time Altitude Azimuth Distance (km) Brightness Sun altitude
Rises 19:43:18 0° 194° (SSW) 3,408 6.9 -19.2°
Reaches altitude 10° 19:45:46 10° 191° (S) 2,477 6.1 -19.6°
Maximum altitude 19:51:22 61° 112° (ESE) 965 3.7 -20.5°
Drops below altitude 10° 19:56:59 10° 33° (NNE) 2,491 6.0 -21.4°
Sets 19:59:28 0° 31° (NNE) 3,430 6.7 -21.8°
